Location: Brookfield Center
(41.2406°N, 80.5579°W)
Time: 22:23:41
(UTC+00:00)

USA 215 - Pass Details

Date: 18 January 2020
Orbit: 1101 x 1107 km, 123.0° (Epoch: 06 February)

Event Time Altitude Azimuth Distance (km) Brightness Sun altitude
Rises 11:00:25 0° 145° (SE) 3,909 6.9 -19.3°
Reaches altitude 10° 11:02:56 10° 149° (SSE) 2,954 6.1 -18.8°
Maximum altitude 11:09:20 57° 227° (SW) 1,278 3.4 -17.6°
Enters shadow 11:13:25 23° 298° (WNW) 2,133 4.2 -16.9°
